CST,Max TemperatureF,Mean TemperatureF,Min TemperatureF,Max Dew PointF,MeanDew PointF,Min DewpointF,Max Humidity, Mean Humidity, Min Humidity, Max Sea Level PressureIn, Mean Sea Level PressureIn, Min Sea Level PressureIn, Max VisibilityMiles, Mean VisibilityMiles, Min VisibilityMiles, Max Wind SpeedMPH, Mean Wind SpeedMPH, Max Gust SpeedMPH,PrecipitationIn, CloudCover, Events, WindDirDegrees
2014-1-1,48,36,24,27,23,20,88,64,39,30.18,30.11,30.05,10,7,1,17,7,21,0.11,6,Snow,348
2014-1-2,24,16,7,19,10,1,88,73,57,30.56,30.29,30.07,10,7,1,23,13,28,0.09,5,Snow,321
2014-1-3,30,17,4,13,8,0,87,67,46,30.56,30.35,30.06,10,9,7,23,10,32,0.00,2,,176
2014-1-4,46,37,27,30,22,11,58,52,45,30.03,29.98,29.92,10,10,5,20,10,25,T,6,Rain,192
2014-1-5,35,19,2,30,12,-14,88,74,60,30.38,30.02,29.89,7,2,0,36,17,46,0.64,7,Fog-Snow,336
2014-1-6,2,-3,-8,-14,-16,-20,56,52,47,30.60,30.53,30.33,10,10,6,29,14,38,0.00,1,Snow,286
2014-1-7,24,10,-4,11,-1,-14,65,55,45,30.56,30.39,30.26,10,10,10,20,9,24,0.00,3,,191
2014-1-8,28,24,20,16,13,9,77,66,55,30.50,30.42,30.29,10,10,9,12,5,15,0.00,7,,22
2014-1-9,34,27,20,31,22,11,89,78,67,30.47,30.34,30.17,7,3,1,12,8,15,0.07,8,Snow,121
2014-1-10,46,40,34,43,37,30,92,89,85,30.17,29.85,29.57,10,5,2,23,11,31,0.55,8,Rain,161
2014-1-11,49,42,34,43,34,28,89,70,50,29.96,29.72,29.55,10,9,4,23,14,29,0.02,5,Rain,271
2014-1-12,59,44,28,34,29,24,85,58,31,29.97,29.83,29.67,10,10,8,28,12,37,0.00,2,,173
2014-1-13,59,46,32,34,32,27,75,57,39,29.90,29.75,29.62,10,10,10,21,9,26,0.00,4,,265
2014-1-14,49,39,29,34,23,12,85,61,37,30.11,29.93,29.78,10,10,9,31,13,38,0.01,4,Rain-Snow,283
2014-1-15,31,27,22,18,11,9,63,53,42,30.25,30.15,29.99,10,10,7,20,10,25,T,4,Snow,282
2014-1-16,47,36,25,30,22,10,78,60,42,29.96,29.82,29.73,10,8,1,29,14,40,0.03,7,Snow,231
2014-1-17,25,20,15,10,7,0,62,57,52,30.17,30.06,29.93,10,8,2,30,13,38,T,6,Snow,287
2014-1-18,43,30,16,34,21,8,79,58,37,30.12,29.85,29.67,10,8,1,25,12,35,0.06,7,Rain-Snow,245
2014-1-19,53,38,23,23,19,16,74,51,28,30.09,29.94,29.78,10,10,8,22,13,29,0.00,2,,248
2014-1-20,50,42,33,30,27,24,70,53,36,29.99,29.93,29.79,10,10,10,20,7,24,0.00,5,,303
2014-1-21,40,26,12,30,11,0,84,69,53,30.42,30.21,29.91,10,5,1,35,12,47,0.09,7,Rain-Snow,329
2014-1-22,30,21,12,14,9,-3,67,57,47,30.39,30.19,30.09,10,10,10,24,12,35,T,6,,266
2014-1-23,14,8,2,-2,-5,-9,69,60,51,30.81,30.72,30.44,10,10,9,25,11,32,T,3,Snow,300
2014-1-24,36,21,6,9,0,-5,69,46,23,30.76,30.28,29.79,10,10,10,26,14,37,0.00,4,,215
2014-1-25,43,33,22,32,18,-1,76,48,20,30.02,29.86,29.68,10,9,2,37,14,47,T,6,Rain-Snow,298
2014-1-26,60,43,25,31,21,-2,54,40,25,30.03,29.74,29.59,10,10,3,40,15,53,T,6,Snow,278
2014-1-27,25,16,7,1,-8,-10,55,43,30,30.58,30.42,30.09,10,10,10,31,15,41,0.00,3,,332
2014-1-28,20,12,3,-4,-7,-10,62,47,31,30.61,30.52,30.43,10,10,10,14,5,18,0.00,2,,294
2014-1-29,35,24,12,6,-1,-5,51,37,22,30.42,30.30,30.12,10,10,10,21,11,24,0.00,0,,206
2014-1-30,47,36,25,12,8,3,50,34,17,30.11,29.95,29.80,10,10,10,29,13,38,0.00,6,,188
2014-1-31,39,34,28,28,22,13,92,64,35,30.16,30.06,29.96,10,6,2,14,8,18,T,8,,49